This demonstration page uses our WeatherBlox Daily Observations layout. Learn more.

Left ArrowRight Arrow

39.01783, -85.05884

Hourly Observations for July 2, 2018

Temp ( °F °C ) Dew Point ( °F °C ) Humidity (%) Winds ( mph kmh ) Pressure ( in mb ) Visibility ( mi km ) Precip ( " mm )
12:39 am 00:39 Mostly Cloudy 76 24.4 71 21.7 85 85 SSE 7 11 30.00 1016 10 16 0.00 0.03
12:52 am 00:52 Mostly Cloudy 76 24.4 70 21.1 82 82 SSE 10 17 29.99 1016 10 16 0.00 0.03
1:52 am 01:52 Partly Cloudy 75 23.9 70 21.1 84 84 S 9 15 29.99 1016 10 16 0.00 0.00
2:52 am 02:52 Clear 74 23.3 70 21.1 88 88 S 10 17 29.97 1015 10 16 0.00 0.00
3:52 am 03:52 Clear 74 23.3 70 21.1 88 88 SSW 7 11 29.96 1015 10 16 0.00 0.00
4:52 am 04:52 Clear 73 22.8 70 21.1 90 90 S 8 13 29.96 1015 10 16 0.00 0.00
5:52 am 05:52 Partly Cloudy 73 22.8 70 21.1 90 90 S 7 11 29.98 1015 10 16 0.00 0.00
6:52 am 06:52 Mostly Cloudy 74 23.3 71 21.7 91 91 VRB 3 6 30.00 1016 9 14 0.00 0.00
7:52 am 07:52 Partly Cloudy 75 23.9 71 21.7 88 88 S 6 9 30.01 1016 10 16 0.00 0.00
8:52 am 08:52 Mostly Sunny 78 25.6 72 22.2 82 82 SSW 6 9 30.02 1017 10 16 0.00 0.00
9:52 am 09:52 Partly Cloudy 81 27.2 73 22.8 77 77 S 6 9 30.02 1017 10 16 0.00 0.00
10:52 am 10:52 Partly Cloudy 84 28.9 75 23.9 74 74 S 7 11 30.01 1016 10 16 0.00 0.00
11:52 am 11:52 Mostly Cloudy 86 30 75 23.9 70 70 SW 6 9 30.02 1017 10 16 0.00 0.00
11:55 am 11:55 Mostly Cloudy 85 29.4 74 23.3 70 70 W 8 13 30.00 1016 10 16 0.00 0.00
12:32 pm 12:32 Mostly Cloudy 88 31.1 75 23.9 66 66 VRB 6 9 30.00 1016 9 14 0.00 0.00
12:46 pm 12:46 Mostly Cloudy with Nearby Thunderstorms 90 32 75 24 63 63 WNW 7 11 30.00 1016 10 16 0.00 0.00
12:52 pm 12:52 Mostly Cloudy with Nearby Thunderstorms 88 31.1 75 23.9 66 66 VRB 7 11 30.02 1017 10 16 0.00 0.00
1:13 pm 13:13 Mostly Cloudy with Nearby Thunderstorms 88 31.1 73 22.8 61 61 Calm 30.00 1016 10 16 0.00 0.00
1:28 pm 13:28 Mostly Cloudy with Light Rain 87 30.6 74 23.3 65 65 SW 3 6 30.00 1016 10 16 0.00 0.03
1:52 pm 13:52 Mostly Cloudy 86 30 74 23.3 67 67 S 5 7 30.01 1016 10 16 0.00 0.03
2:22 pm 14:22 Mostly Cloudy with Nearby Thunderstorms 91 32.8 72 22.2 54 54 S 6 9 29.97 1015 9 14 0.00 0.00
2:52 pm 14:52 Mostly Cloudy with Nearby Thunderstorms 89 31.7 73 22.8 59 59 WNW 24 39 30.01 1016 10 16 0.00 0.00
2:59 pm 14:59 Mostly Cloudy with Thunderstorms 84 28.9 70 21.1 63 63 WNW 16 26 30.00 1016 10 16 0.00 0.00
3:52 pm 15:52 Mostly Cloudy 80 26.7 67 19.4 64 64 N 7 11 30.00 1016 10 16 0.00 0.00
4:03 pm 16:03 Mostly Cloudy with Nearby Thunderstorms 80 26.7 66 18.9 62 62 NNW 3 6 30.00 1016 10 16 0.00 0.00
4:28 pm 16:28 Mostly Cloudy 82 27.8 66 18.9 58 58 E 7 11 30.00 1016 10 16 0.00 0.00
4:52 pm 16:52 Cloudy 82 27.8 68 20 63 63 ESE 5 7 30.03 1017 10 16 0.00 0.00
5:52 pm 17:52 Cloudy 80 26.7 69 20.6 69 69 SSE 10 17 30.02 1017 10 16 0.00 0.00
6:52 pm 18:52 Cloudy 82 27.8 71 21.7 69 69 SSE 5 7 30.00 1016 10 16 0.00 0.00
7:52 pm 19:52 Cloudy 82 27.8 70 21.1 67 67 ESE 7 11 30.02 1017 10 16 0.00 0.00
8:52 pm 20:52 Cloudy 80 26.7 70 21.1 71 71 S 3 6 30.03 1017 10 16 0.00 0.00
9:52 pm 21:52 Mostly Cloudy 77 25 70 21.1 79 79 S 3 6 30.04 1017 10 16 0.00 0.00
10:52 pm 22:52 Mostly Cloudy 75 23.9 71 21.7 88 88 S 6 9 30.07 1018 10 16 0.00 0.00
11:52 pm 23:52 Mostly Cloudy 76 24.4 69 20.6 79 79 SSE 3 6 30.09 1019 10 16 0.00 0.00

Powered by AerisWeather